Weather History for Birmingham, United Kingdom

Change the Weather History Date:

Wednesday, October 30, 2013

  Actual Average Record
Temperature  
Mean Temperature 48 °F -  
Max Temperature 55 °F 49 °F 64 °F (2011)
Min Temperature 41 °F 37 °F 26 °F (1997)
Degree Days  
Heating Degree Days 17    
Moisture  
Dew Point 44 °F    
Average Humidity 84    
Maximum Humidity 94    
Minimum Humidity 67    
Precipitation  
Precipitation 0.00 in 0.08 in - ()
Sea Level Pressure  
Sea Level Pressure 30.03 in    
Wind  
Wind Speed 10 mph ()    
Max Wind Speed 17 mph    
Max Gust Speed -    
Visibility 5.9 miles    
Events Rain    
Averages and records for this station are not official NWS values.
T = Trace of Precipitation, MM = Missing Value Source: Averaged Metar Reports

Daily Weather History Graph

Daily Weather History Graph

Search for Another Location

Airport:

Trip Planner

Search our weather history database for the weather conditions in past years. The results will help you decide how hot, cold, wet, or windy it might be!

Date:

Astronomy

Oct. 30, 2013 Rise Set
Actual Time 6:59 AM GMT 4:40 PM GMT
Civil Twilight 6:23 AM GMT 5:16 PM GMT
Nautical Twilight 5:43 AM GMT 5:56 PM GMT
Astronomical Twilight 5:04 AM GMT 6:36 PM GMT
Moon 2:02 AM GMT (10/30) 2:46 PM GMT (10/30)
Length of Visible Light 10h 52m
Length of Day
9h 41m
Waning Crescent, 18% of the Moon is Illuminated
Oct 30
Waning Crescent
Nov 3
New
Nov 10
First Quarter
Nov 17
Full
Nov 25
Last Quarter

Hourly Weather History & Observations

Time (GMT) Temp. Windchill Dew Point Humidity Pressure Visibility Wind Dir Wind Speed Gust Speed Precip Events Conditions
12:20 AM 44.6 °F 39.2 °F 41.0 °F 87% 30.04 in - SSW 10.4 mph - N/A   Clear
12:50 AM 42.8 °F 38.0 °F 41.0 °F 93% 30.04 in - SSW 8.1 mph - N/A   Clear
1:20 AM 42.8 °F 38.0 °F 39.2 °F 87% 30.04 in - SW 8.1 mph - N/A   Clear
1:50 AM 42.8 °F 38.0 °F 39.2 °F 87% 30.04 in 6.2 mi SW 8.1 mph - N/A   Unknown
2:20 AM 42.8 °F 37.5 °F 39.2 °F 87% 30.04 in 6.2 mi WSW 9.2 mph - N/A   Unknown
2:50 AM 41.0 °F 35.2 °F 39.2 °F 93% 30.04 in 6.2 mi SW 9.2 mph - N/A   Unknown
3:20 AM 41.0 °F 35.2 °F 39.2 °F 93% 30.04 in - WSW 9.2 mph - N/A   Clear
3:50 AM 41.0 °F 35.8 °F 37.4 °F 87% 30.06 in - SW 8.1 mph - N/A   Clear
4:20 AM 41.0 °F 35.2 °F 37.4 °F 87% 30.06 in 6.2 mi SW 9.2 mph - N/A   Unknown
4:50 AM 41.0 °F 35.2 °F 37.4 °F 87% 30.06 in - WSW 9.2 mph - N/A   Clear
5:20 AM 41.0 °F 35.8 °F 37.4 °F 87% 30.06 in - SW 8.1 mph - N/A   Clear
5:50 AM 41.0 °F 35.2 °F 37.4 °F 87% 30.06 in - SW 9.2 mph - N/A   Clear
6:20 AM 41.0 °F 34.7 °F 37.4 °F 87% 30.06 in - SW 10.4 mph - N/A   Clear
6:50 AM 41.0 °F 35.8 °F 37.4 °F 87% 30.09 in - SW 8.1 mph - N/A   Clear
7:20 AM 41.0 °F 35.8 °F 39.2 °F 93% 30.09 in - SW 8.1 mph - N/A   Clear
7:50 AM 41.0 °F 37.1 °F 39.2 °F 93% 30.09 in - SSW 5.8 mph - N/A   Clear
8:20 AM 42.8 °F 37.5 °F 39.2 °F 87% 30.09 in - SSW 9.2 mph - N/A   Clear
8:50 AM 44.6 °F 40.2 °F 41.0 °F 87% 30.09 in - SSW 8.1 mph - N/A   Clear
9:20 AM 48.2 °F - 42.8 °F 82% 30.09 in 6.2 mi SSW 10.4 mph - N/A   Unknown
9:50 AM 48.2 °F - 42.8 °F 82% 30.09 in - South 8.1 mph - N/A   Clear
10:20 AM 50.0 °F - 44.6 °F 82% 30.09 in 6.2 mi South 9.2 mph - N/A   Unknown
10:50 AM 48.2 °F - 44.6 °F 87% 30.09 in - South 9.2 mph - N/A   Clear
11:20 AM 50.0 °F - 44.6 °F 82% 30.09 in 6.2 mi South 9.2 mph - N/A   Partly Cloudy
11:50 AM 53.6 °F - 46.4 °F 77% 30.06 in 6.2 mi South 11.5 mph - N/A   Unknown
12:20 PM 55.4 °F - 46.4 °F 72% 30.06 in 6.2 mi SSW 12.7 mph - N/A   Partly Cloudy
12:50 PM 55.4 °F - 44.6 °F 67% 30.04 in 6.2 mi South 15.0 mph - N/A   Partly Cloudy
1:20 PM 55.4 °F - 46.4 °F 72% 30.04 in 6.2 mi SSW 12.7 mph - N/A   Mostly Cloudy
1:50 PM 55.4 °F - 46.4 °F 72% 30.04 in 6.2 mi SSW 11.5 mph - N/A   Mostly Cloudy
2:20 PM 55.4 °F - 46.4 °F 72% 30.01 in 6.2 mi SSW 12.7 mph - N/A   Mostly Cloudy
2:50 PM 55.4 °F - 46.4 °F 72% 30.01 in 6.2 mi SSW 15.0 mph - N/A   Partly Cloudy
3:20 PM 55.4 °F - 46.4 °F 72% 30.01 in 6.2 mi South 12.7 mph - N/A   Partly Cloudy
3:50 PM 55.4 °F - 46.4 °F 72% 29.98 in 6.2 mi South 12.7 mph - N/A   Partly Cloudy
4:20 PM 55.4 °F - 46.4 °F 72% 29.98 in 6.2 mi South 15.0 mph - N/A   Scattered Clouds
4:50 PM 55.4 °F - 46.4 °F 72% 29.98 in 6.2 mi SSW 13.8 mph - N/A   Mostly Cloudy
5:20 PM 53.6 °F - 48.2 °F 82% 29.98 in 6.2 mi South 12.7 mph - N/A   Scattered Clouds
5:50 PM 53.6 °F - 46.4 °F 77% 29.98 in 6.2 mi South 12.7 mph - N/A   Scattered Clouds
6:20 PM 53.6 °F - 48.2 °F 82% 29.98 in 6.2 mi SSW 16.1 mph - N/A   Mostly Cloudy
6:50 PM 53.6 °F - 46.4 °F 77% 29.98 in 6.2 mi South 16.1 mph - N/A   Scattered Clouds
7:20 PM 53.6 °F - 48.2 °F 82% 29.98 in 6.2 mi South 13.8 mph - N/A   Mostly Cloudy
7:50 PM 53.6 °F - 48.2 °F 82% 29.98 in 6.2 mi SSW 15.0 mph - N/A   Overcast
8:20 PM 53.6 °F - 50.0 °F 88% 29.98 in 6.2 mi SSW 15.0 mph - N/A   Overcast
8:50 PM 53.6 °F - 50.0 °F 88% 29.95 in 6.2 mi SSW 17.3 mph - N/A   Mostly Cloudy
9:20 PM 55.4 °F - 50.0 °F 82% 29.95 in 6.2 mi SSW 16.1 mph - N/A   Overcast
9:50 PM 53.6 °F - 51.8 °F 94% 29.95 in 5.0 mi SSW 15.0 mph - N/A Rain Light Rain
10:20 PM 53.6 °F - 51.8 °F 94% 29.98 in 3.1 mi SSW 12.7 mph - N/A Rain Light Rain
10:50 PM 53.6 °F - 51.8 °F 94% 29.98 in 3.1 mi SW 11.5 mph - N/A Rain Light Rain
11:20 PM 53.6 °F - 51.8 °F 94% 29.98 in 3.1 mi SW 10.4 mph - N/A   Light Drizzle
11:50 PM 53.6 °F - 51.8 °F 94% 29.98 in 6.2 mi SW 8.1 mph - N/A   Mostly Cloudy